Weather History for KALO - May, 2014

Change the Weather History Date:

Thursday, May 8, 2014

  Actual Average Record
Temperature  
Mean Temperature 69 °F 58 °F  
Max Temperature 79 °F 70 °F 90 °F (1934)
Min Temperature 59 °F 46 °F 28 °F (1976)
Degree Days  
Heating Degree Days 0 8  
Month to date heating degree days 72 73  
Since 1 July heating degree days 8180 6889  
Cooling Degree Days 4 1  
Month to date cooling degree days 8 8  
Year to date cooling degree days 10 16  
Growing Degree Days 22 (Base 50)    
Moisture  
Dew Point 61 °F    
Average Humidity 68    
Maximum Humidity 81    
Minimum Humidity 54    
Precipitation  
Precipitation 0.03 in 0.14 in 1.47 in (1988)
Month to date precipitation 0.17 1.11  
Year to date precipitation 11.54 8.70  
Snow  
Snow 0.00 in 0.00 in - ()
Month to date snowfall 0.0 0.0  
Since 1 July snowfall 58.0 35.3  
Snow Depth 0.00 in    
Sea Level Pressure  
Sea Level Pressure 29.66 in    
Wind  
Wind Speed 14 mph (South)    
Max Wind Speed 28 mph    
Max Gust Speed 36 mph    
Visibility 10 miles    
Events Rain    
T = Trace of Precipitation, MM = Missing Value Source: NWS Daily Summary

Daily Weather History Graph

Daily Weather History Graph

Search for Another Location

Airport or City:

Trip Planner

Search our weather history database for the weather conditions in past years. The results will help you decide how hot, cold, wet, or windy it might be!

Date:

Astronomy

May. 08, 2014 Rise Set
Actual Time 5:55 AM CDT 8:17 PM CDT
Civil Twilight 5:23 AM CDT 8:49 PM CDT
Nautical Twilight 4:44 AM CDT 9:28 PM CDT
Astronomical Twilight 4:01 AM CDT 10:12 PM CDT
Moon 2:10 PM CDT (5/8) 2:35 AM CDT (5/8)
Length of Visible Light 15h 25m
Length of Day
14h 22m
Waxing Gibbous, 65% of the Moon is Illuminated
May 8
Waxing Gibbous
May 14
Full
May 21
Last Quarter
May 28
New
Jun 5
First Quarter

Hourly Weather History & Observations

Time (CDT) Temp. Dew Point Humidity Pressure Visibility Wind Dir Wind Speed Gust Speed Precip Events Conditions
12:54 AM 71.1 °F 60.1 °F 68% 29.66 in 10.0 mi SSE 8.1 mph - N/A   Clear
1:54 AM 71.1 °F 61.0 °F 70% 29.65 in 10.0 mi South 10.4 mph - N/A   Clear
2:54 AM 70.0 °F 60.1 °F 71% 29.65 in 10.0 mi SSW 10.4 mph - N/A   Clear
3:54 AM 66.9 °F 57.9 °F 73% 29.65 in 10.0 mi South 6.9 mph - N/A   Clear
4:54 AM 64.9 °F 57.0 °F 75% 29.66 in 10.0 mi NW 8.1 mph - N/A   Clear
5:54 AM 64.9 °F 57.9 °F 78% 29.66 in 10.0 mi SE 5.8 mph - N/A   Clear
6:54 AM 66.9 °F 61.0 °F 81% 29.68 in 10.0 mi South 6.9 mph - N/A   Clear
7:54 AM 70.0 °F 62.1 °F 76% 29.70 in 10.0 mi SSW 9.2 mph - N/A   Clear
8:54 AM 71.1 °F 64.0 °F 78% 29.71 in 10.0 mi North 3.5 mph - 0.00 in   Partly Cloudy
9:54 AM 73.9 °F 63.0 °F 68% 29.69 in 10.0 mi South 11.5 mph - N/A   Clear
10:54 AM 75.9 °F 63.0 °F 64% 29.71 in 10.0 mi SSW 15.0 mph 23.0 mph N/A   Clear
11:54 AM 77.0 °F 63.0 °F 62% 29.69 in 10.0 mi South 19.6 mph 26.5 mph N/A   Clear
12:54 PM 73.0 °F 63.0 °F 71% 29.70 in 10.0 mi South 18.4 mph 33.4 mph 0.00 in   Mostly Cloudy
1:54 PM 73.0 °F 64.0 °F 73% 29.68 in 10.0 mi South 16.1 mph - 0.00 in   Mostly Cloudy
2:54 PM 77.0 °F 63.0 °F 62% 29.65 in 10.0 mi South 19.6 mph 26.5 mph N/A   Partly Cloudy
3:54 PM 79.0 °F 61.0 °F 54% 29.63 in 10.0 mi South 17.3 mph 26.5 mph N/A   Partly Cloudy
4:54 PM 75.0 °F 62.1 °F 64% 29.65 in 10.0 mi South 16.1 mph 27.6 mph N/A   Overcast
5:54 PM 75.9 °F 62.1 °F 62% 29.62 in 10.0 mi South 18.4 mph - N/A   Mostly Cloudy
6:54 PM 73.9 °F 62.1 °F 66% 29.62 in 10.0 mi South 23.0 mph 31.1 mph N/A   Scattered Clouds
7:54 PM 73.0 °F 63.0 °F 71% 29.62 in 10.0 mi South 15.0 mph 25.3 mph N/A   Scattered Clouds
8:54 PM 72.0 °F 62.1 °F 71% 29.61 in 10.0 mi South 17.3 mph 26.5 mph N/A   Scattered Clouds
9:54 PM 72.0 °F 62.1 °F 71% 29.61 in 10.0 mi South 15.0 mph 28.8 mph 0.00 in   Overcast
10:54 PM 71.1 °F 61.0 °F 70% 29.62 in 10.0 mi SSW 21.9 mph 28.8 mph N/A   Scattered Clouds
11:54 PM 64.9 °F 60.1 °F 84% 29.62 in 10.0 mi SW 12.7 mph - 0.01 in Rain Light Rain